Location: Rio de Janeiro
(22.9068°S, 43.1729°W)
Time: 18:40:41
(UTC-03:00)

BlueWalker 3 - Visible Passes

Search period start: 29 November 2023 00:00
Search period end: 09 December 2023 00:00
Orbit: 489 x 504 km, 53.2° (Epoch: 29 November)

Date Brightness Start Highest point End Pass type
(mag) Time Alt. Az. Time Alt. Az. Time Alt. Az.
29 Nov 2.6 20:23:19 10° SW 20:26:26 54° WSW 20:26:26 54° WSW visible
30 Nov 1.8 20:00:44 10° SW 20:04:37 76° NW 20:05:00 67° N visible
01 Dec 1.9 19:38:07 10° SW 19:42:00 78° NW 19:43:37 33° NNE visible
02 Dec 2.0 19:15:30 10° SW 19:19:22 79° NW 19:22:19 17° NNE visible
03 Dec 2.0 18:52:50 10° SW 18:56:44 81° NW 19:00:35 10° NE visible
